{"data":{"norad_id":63169,"intl_designator":"2025-046L","name":"QIANFAN-83","alt_names":[],"object_type":"PAYLOAD","status":"ACTIVE","operator":null,"country":"PRC","launch_date":"2025-03-11","launch_site_code":"WSC","launch_vehicle":null,"mission":null,"orbit_class":"UNKNOWN","rcs_meters":null,"size_class":null,"mass_kg":null,"dimensions":null,"purposes":[],"wikipedia_slug":null,"has_3d_model":false,"image_url":null,"decayed_at":null,"tle_current":{"epoch":"2026-05-25T02:01:56.282880Z","epoch_age_seconds":67838,"freshness":"FRESH","line1":"1 63169U 25046L   26145.08467920  .00000093  00000+0  10430-3 0  9998","line2":"2 63169  88.9693 302.4389 0013683   1.2873 358.8317 13.62036304 69830","mean_motion":13.62036304,"eccentricity":0.0013683,"inclination_deg":88.9693,"raan_deg":302.4389,"arg_perigee_deg":1.2873,"mean_anomaly_deg":358.8317,"bstar":0.0001043,"rev_number":6983,"period_min":105.72405418057,"perigee_km":1018.1666684447,"apogee_km":1038.4351263948,"semimajor_km":7406.4378974197,"source":"CELESTRAK","updated_at":"2026-05-25T13:38:03.540732Z"}}}